User: anonymous   Login
Location: Bangkok
(13.7500°N, 100.5170°E)
Time: 20:25:52
(UTC+07:00)
Language:

ERBS - Orbit

View from above orbital plane
View from above orbital plane
View from above satellite
View from above satellite

Ground track
Ground track

The orbit data is extracted from the following two-line orbital elements,

1 15354U 84108B   16239.21372205  .00002540  00000-0  69134-4 0  9990
2 15354  57.0100 326.3442 0006065 262.0938  97.9427 15.41384895752688
Epoch (UTC): 26 August 2016 05:07:45
Eccentricity: 0.0006065
inclination: 57.0100°
perigee height: 438 km
apogee height: 446 km
right ascension of ascending node: 326.3442°
argument of perigee: 262.0938°
revolutions per day: 15.41384895
mean anomaly at epoch: 97.9427°
orbit number at epoch: 75268

The dashed part of the orbit path shows where the satellite is in the earth's shadow,  

DLR